Location: Foulognes
(49.1413°N, 0.8183°W)
Time: 18:23:08
(UTC+00:00)

ASTEX 1 - Pass Details

Date: 21 October 2019
Orbit: 722 x 742 km, 92.7° (Epoch: 22 November)

Event Time Altitude Azimuth Distance (km) Brightness Sun altitude
Rises 18:02:18 0° 6° (N) 3,172 6.6 -10.5°
Reaches altitude 10° 18:04:36 10° 7° (N) 2,248 5.8 -10.8°
Maximum altitude 18:09:35 81° 95° (E) 752 3.4 -11.7°
Drops below altitude 10° 18:14:34 10° 184° (S) 2,242 6.0 -12.5°
Sets 18:16:51 0° 185° (S) 3,163 6.8 -12.9°
